Starlink 30192

operational
NORAD ID: 57405 Int'l Des: 2023-102 Owner: SPXS Country: US Constellation: starlink
LEOCIRCULAR

About Starlink 30192

Description loading...

Live Position

Loading 3D Globe...

Upcoming Passes

Altitude History

Altitude vs Time

uPlot chart will show altitude changes over time

Two-Line Element Set

1 57405U 23102B 25259.31570990 .00000929 00000-0 83804-4 0 9993
2 57405 43.0038 116.5623 0001207 263.3562 96.7143 15.02539477120008
Epoch: Sep 16, 2025 • Age: 26 hours

Current Status

Altitude 560.1 km
Velocity 7.59 km/s
Sub-Earth Point 29.32°N, 111.78°E
Launch Date Jul 19, 2023
Age 2.1 years
Type internet

Technical Details

Classification Payload
Mass 730.00 kg
Dry Mass 700.00 kg
Total Mass 730.00 kg
Length 0.30 m
Diameter 4.10 m
Span 29.00 m
Shape Box + pan
Manufacturer SPXS
Bus Type Starlink V2M
Phase Status In Orbit
Owner/State SPXS/US

Large Constellations

Loading constellations...